Погода в Торреоне

Мексика     25°32′15″N   103°26′10″W
темп.,
°C
ветер,
м/с
пор.,
м/с
влажн.,
%
обл.,
%
осадки,
мм/ч
давл.,
гПа
погр.,
м
13 апреля, вт
вт1301:00+22юз22110 0.0 100711
04:00+19юз22130 0.0 100711
07:00+17ююв11180 0.0 100911
10:00+23вюв12140 0.0 1012374
13:00+29в2390 0.0 10091799
16:00+33в2660 0.0 10053478
19:00+33всв4350 0.0 10031295
22:00+24з22100 0.0 100711
14 апреля, ср
ср1401:00+21ссв11160 0.0 100914
04:00+17ссз227296 0.0 101011
07:00+16с009055 0.0 101211
10:00+22юз114611 0.0 1013457
13:00+29вюв121259 0.0 10111788
16:00+33ю2560 0.0 10062981
19:00+34юз3550 0.0 10042199
22:00+23сз11112 0.0 100711
15 апреля, чт
чт1501:00+23з2211100 0.0 100811
04:00+21зсз33169 0.0 100919
07:00+18зсз11505 0.0 101011
10:00+24вюв12488 0.0 1012586
13:00+30юв232272 0.0 10091845
16:00+34юз4674 0.0 10043269
19:00+34св32522 0.0 10011030
22:00+26юз4470 0.0 100525
16 апреля, пт
пт1601:00+22юз22113 0.0 100711
04:00+18зюз11157 0.0 100611
07:00+16ююв111712 0.0 100711
10:00+24ю2212100 0.0 1008351
13:00+29юз24834 0.0 10051734
16:00+33сз26667 0.0 10003519
19:00+34с66678 0.0 9991818
22:00+23зсз221296 0.0 100411
17 апреля, сб
сб1701:00+22зюз1113100 0.0 100511
04:00+19сз011691 0.0 100512
07:00+17юв1120100 0.0 100711
10:00+24ю111398 0.0 1009480
13:00+28ююв23101 0.0 10062437
16:00+32юз4760 0.0 10023792
19:00+33сз14582 0.0 9991723
22:00+20с56390 0.0 1008149